N1LID Lexington Park MD US current weather conditions

sailwx.info

Wind from 096

Air temperature 26.1° C
Dewpoint 24.3° C

Last reported at 2020-Aug-13 17:01 UTC.
Time now 2020-Aug-13 17:44 UTC

Location: N 38°15' W 076°27'.
View on Google Maps.

See reports from other nearby stations

  
Tides and Currents Weather Stations Pressure Air Temp Water Temp Dewpoint Dewpoint Depression Visibility Wind Speed Wind Dir Waves Ship Positions
date/time (UTC)wind fromknots sea level pressurealtimeterstation pressurevisibilityair tempwater tempwave heightnotes
2020-Aug-13 17:01 096 26.1
2020-Aug-13 16:46 116 0 gusting 6 26.1
2020-Aug-13 16:31 083 25.6
2020-Aug-13 16:16 065 25.6
2020-Aug-13 16:01 157 25.6
2020-Aug-13 15:46 092 25.0
2020-Aug-13 15:32 141 25.0
2020-Aug-13 15:16 251 24.4
2020-Aug-13 15:00 249 24.4
2020-Aug-13 14:46 248 23.9
2020-Aug-13 14:31 248 23.9
2020-Aug-13 14:15 248 23.3
2020-Aug-13 14:01 248 22.8
2020-Aug-13 13:45 248 22.8
2020-Aug-13 13:31 248 22.8
2020-Aug-13 13:15 156 22.8
2020-Aug-13 13:00 156 23.3
2020-Aug-13 12:46 156 23.3
2020-Aug-13 12:30 156 23.3
2020-Aug-13 12:15 156 22.8
2020-Aug-13 12:00 156 22.8
2020-Aug-13 11:46 156 22.8
2020-Aug-13 11:30 156 22.8
2020-Aug-13 11:15 219 22.8
2020-Aug-13 11:00 234 23.3
2020-Aug-13 10:45 236 23.9
2020-Aug-13 10:30 236 23.9
2020-Aug-13 10:15 236 23.9
2020-Aug-13 10:00 236 23.9
2020-Aug-13 09:45 236 23.9
2020-Aug-13 09:30 236 23.3
2020-Aug-13 09:15 236 23.3
2020-Aug-13 09:00 236 23.3
2020-Aug-13 08:45 236 23.3
2020-Aug-13 08:30 236 23.3
2020-Aug-13 08:15 236 23.3
2020-Aug-13 08:00 236 23.3
2020-Aug-13 07:45 236 23.3
2020-Aug-13 07:30 236 23.3
2020-Aug-13 07:15 236 23.3
2020-Aug-13 07:00 236 23.3
2020-Aug-13 06:46 236 23.3
2020-Aug-13 06:31 236 23.3
2020-Aug-13 06:16 236 23.3
2020-Aug-13 06:01 236 23.3
2020-Aug-13 05:47 236 23.3
2020-Aug-13 05:31 236 23.3
2020-Aug-13 05:17 236 23.3
2020-Aug-13 05:01 236 23.3
2020-Aug-13 04:47 236 23.3
2020-Aug-13 04:31 236 23.3
2020-Aug-13 04:16 236 23.3
2020-Aug-13 04:01 236 23.3
2020-Aug-13 03:45 236 23.3
2020-Aug-13 03:31 236 23.3
2020-Aug-13 03:16 236 23.3
2020-Aug-13 03:01 236 23.3
2020-Aug-13 02:46 235 23.3
2020-Aug-13 02:31 235 23.3
2020-Aug-13 02:16 235 23.3
2020-Aug-13 02:00 235 23.3
2020-Aug-13 01:46 235 23.3
2020-Aug-13 01:31 235 23.3
2020-Aug-13 01:16 235 23.3
2020-Aug-13 01:00 236 23.3
2020-Aug-13 00:46 238 23.9
2020-Aug-13 00:31 240 24.4
2020-Aug-13 00:16 240 24.4
2020-Aug-13 00:00 240 25.0
2020-Aug-12 23:45 076 25.6
2020-Aug-12 23:30 232 26.1
2020-Aug-12 23:15 232 26.1
2020-Aug-12 23:00 232 26.7
2020-Aug-12 22:46 232 26.7
2020-Aug-12 22:30 232 26.7
2020-Aug-12 22:15 232 26.7
2020-Aug-12 22:00 232 26.7
2020-Aug-12 21:45 232 26.7
2020-Aug-12 21:30 232 26.1
2020-Aug-12 21:15 232 26.1
2020-Aug-12 21:00 232 26.7
2020-Aug-12 20:45 232 27.2
2020-Aug-12 20:31 232 27.8
2020-Aug-12 20:15 212 1 gusting 8 27.8
2020-Aug-12 20:00 311 28.3
2020-Aug-12 19:45 239 28.9
2020-Aug-12 19:30 217 28.9
2020-Aug-12 19:15 217 29.4
2020-Aug-12 19:00 217 30.0
2020-Aug-12 18:45 222 31.1
2020-Aug-12 18:30 251 0 gusting 4 31.1
2020-Aug-12 18:15 069 31.1
2020-Aug-12 17:45 246 32.2
2020-Aug-12 17:30 221 31.7
2020-Aug-12 17:15 083 0 gusting 4 31.1
2020-Aug-12 17:00 084 29.4
2020-Aug-12 16:45 167 29.4
2020-Aug-12 16:32 046 30.0
2020-Aug-12 16:16 161 30.0
2020-Aug-12 16:01 169 30.6
2020-Aug-12 15:47 213 31.1
2020-Aug-12 15:33 243 31.7
2020-Aug-12 15:16 055 31.1
2020-Aug-12 15:01 228 0 gusting 5 30.6
2020-Aug-12 14:46 054 30.6
2020-Aug-12 14:31 074 30.0
2020-Aug-12 14:15 065 28.9
2020-Aug-12 14:01 065 28.9
2020-Aug-12 13:47 064 28.3
2020-Aug-12 13:30 061 28.3
2020-Aug-12 13:15 134 27.2
2020-Aug-12 13:01 134 26.7
2020-Aug-12 12:45 222 26.1
2020-Aug-12 12:30 222 25.6
2020-Aug-12 12:16 222 25.6
2020-Aug-12 12:00 222 25.0
2020-Aug-12 11:46 222 24.4
2020-Aug-12 11:30 222 24.4
2020-Aug-12 11:15 222 23.9
2020-Aug-12 11:01 222 23.9
2020-Aug-12 10:45 222 23.9
2020-Aug-12 10:30 222 23.9
2020-Aug-12 10:15 222 23.9
2020-Aug-12 10:00 222 23.9
2020-Aug-12 09:45 222 23.9
2020-Aug-12 09:30 222 23.9
2020-Aug-12 09:15 222 23.9
2020-Aug-12 09:00 222 23.9
2020-Aug-12 08:45 222 24.4
2020-Aug-12 08:30 222 24.4
2020-Aug-12 08:15 222 24.4
2020-Aug-12 08:00 222 24.4
2020-Aug-12 07:45 224 24.4
2020-Aug-12 07:30 224 24.4
2020-Aug-12 07:15 224 24.4
2020-Aug-12 06:45 224 24.4
2020-Aug-12 06:30 224 24.4
2020-Aug-12 06:16 224 24.4
2020-Aug-12 06:01 224 24.4
2020-Aug-12 05:47 224 25.0
2020-Aug-12 05:32 224 25.0
2020-Aug-12 05:16 224 25.0
2020-Aug-12 05:02 224 25.6
2020-Aug-12 04:46 224 25.6
2020-Aug-12 04:31 224 25.6
2020-Aug-12 04:17 225 26.1
2020-Aug-12 04:01 225 26.1
2020-Aug-12 03:46 229 26.7
2020-Aug-12 03:31 200 26.7
2020-Aug-12 03:16 245 26.7
2020-Aug-12 03:01 224 27.2
2020-Aug-12 02:46 245 27.2
2020-Aug-12 02:31 256 27.2
2020-Aug-12 02:16 213 0 gusting 6 27.2
2020-Aug-12 02:01 201 27.2
2020-Aug-12 01:45 219 27.2
2020-Aug-12 01:31 212 26.7
2020-Aug-12 01:16 217 26.7
2020-Aug-12 01:01 218 26.7
2020-Aug-12 00:46 249 27.2
2020-Aug-12 00:31 250 27.2
2020-Aug-12 00:16 250 27.8
2020-Aug-12 00:00 250 27.8
2020-Aug-11 23:45 250 28.3
2020-Aug-11 23:30 250 28.9
2020-Aug-11 23:16 250 29.4
2020-Aug-11 23:01 236 29.4
2020-Aug-11 22:46 236 30.0
2020-Aug-11 22:31 242 30.6
2020-Aug-11 22:16 229 30.6
2020-Aug-11 21:46 231 0 gusting 6 30.6
2020-Aug-11 21:30 252 0 gusting 6 30.6
2020-Aug-11 21:15 194 1 gusting 8 30.6
2020-Aug-11 21:01 246 30.6
2020-Aug-11 20:45 170 31.1
2020-Aug-11 20:31 206 1 gusting 8 31.1
2020-Aug-11 20:15 114 31.1
2020-Aug-11 20:00 197 31.7
2020-Aug-11 19:45 199 31.7
2020-Aug-11 19:31 241 3 gusting 8 32.2
2020-Aug-11 19:16 238 0 gusting 4 32.8
2020-Aug-11 19:00 228 32.8
2020-Aug-11 18:46 266 1 gusting 6 32.2
2020-Aug-11 18:30 247 1 gusting 6 32.2
2020-Aug-11 18:15 237 2 gusting 11 32.2
2020-Aug-11 18:00 247 2 gusting 6 31.7
2020-Aug-11 17:45 251 31.7
2020-Aug-11 17:30 262 32.2
2020-Aug-11 17:15 164 31.7